Time,TemperatureF,DewpointF,PressureIn,WindDirection,WindDirectionDegrees,WindSpeedMPH,WindSpeedGustMPH,Humidity,HourlyPrecipIn,Conditions,Clouds,dailyrainin,SolarRadiationWatts/m^2,SoftwareType,DateUTC
2013-08-02 00:13:00,82.5,60.0,29.96,ESE,113,2.0,3.0,47,0.00,,,0.00,0,weatherlink.com 1.10,2013-08-02 07:13:00,
2013-08-02 00:28:00,82.0,60.0,29.96,NNE,28,0.0,4.0,48,0.00,,,0.00,0,weatherlink.com 1.10,2013-08-02 07:28:00,
2013-08-02 00:43:00,80.9,61.0,29.96,SSW,202,3.0,4.0,51,0.00,,,0.00,0,weatherlink.com 1.10,2013-08-02 07:43:00,
2013-08-02 00:58:00,79.6,62.0,29.96,East,95,1.0,3.0,55,0.00,,,0.00,0,weatherlink.com 1.10,2013-08-02 07:58:00,
2013-08-02 01:13:00,79.0,62.0,29.95,East,95,0.0,1.0,56,0.00,,,0.00,0,weatherlink.com 1.10,2013-08-02 08:13:00,
2013-08-02 01:28:00,78.3,62.0,29.95,East,95,0.0,1.0,58,0.00,,,0.00,0,weatherlink.com 1.10,2013-08-02 08:28:00,
2013-08-02 01:43:00,78.6,62.0,29.95,East,95,0.0,0.0,57,0.00,,,0.00,0,weatherlink.com 1.10,2013-08-02 08:43:00,
2013-08-02 01:58:00,79.1,62.0,29.95,East,95,0.0,0.0,56,0.00,,,0.00,0,weatherlink.com 1.10,2013-08-02 08:58:00,
2013-08-02 02:13:00,79.3,62.0,29.94,East,95,0.0,0.0,56,0.00,,,0.00,0,weatherlink.com 1.10,2013-08-02 09:13:00,
2013-08-02 02:28:00,78.7,62.0,29.94,East,95,1.0,1.0,57,0.00,,,0.00,0,weatherlink.com 1.10,2013-08-02 09:28:00,
2013-08-02 02:43:00,78.5,62.0,29.94,ENE,73,3.0,4.0,58,0.00,,,0.00,0,weatherlink.com 1.10,2013-08-02 09:43:00,
2013-08-02 02:58:00,78.7,62.0,29.94,ENE,62,1.0,4.0,56,0.00,,,0.00,0,weatherlink.com 1.10,2013-08-02 09:58:00,
2013-08-02 03:13:00,79.0,61.0,29.94,ENE,62,2.0,4.0,55,0.00,,,0.00,0,weatherlink.com 1.10,2013-08-02 10:13:00,
2013-08-02 03:28:00,78.8,61.0,29.94,ENE,78,0.0,4.0,55,0.00,,,0.00,0,weatherlink.com 1.10,2013-08-02 10:28:00,
2013-08-02 03:43:00,78.6,62.0,29.94,ENE,71,0.0,2.0,56,0.00,,,0.00,0,weatherlink.com 1.10,2013-08-02 10:43:00,
2013-08-02 03:58:00,78.2,62.0,29.94,ENE,71,0.0,1.0,57,0.00,,,0.00,0,weatherlink.com 1.10,2013-08-02 10:58:00,
2013-08-02 04:13:00,77.7,62.0,29.94,ENE,71,0.0,1.0,58,0.00,,,0.00,0,weatherlink.com 1.10,2013-08-02 11:13:00,
2013-08-02 04:28:00,77.2,62.0,29.94,ENE,71,0.0,1.0,59,0.00,,,0.00,0,weatherlink.com 1.10,2013-08-02 11:28:00,
2013-08-02 04:43:00,76.5,62.0,29.94,ESE,111,0.0,2.0,61,0.00,,,0.00,0,weatherlink.com 1.10,2013-08-02 11:43:00,
2013-08-02 04:58:00,76.4,62.0,29.95,ESE,111,0.0,1.0,61,0.00,,,0.00,0,weatherlink.com 1.10,2013-08-02 11:58:00,
2013-08-02 05:13:00,76.4,62.0,29.95,ESE,111,0.0,1.0,61,0.00,,,0.00,0,weatherlink.com 1.10,2013-08-02 12:13:00,
2013-08-02 05:28:00,75.9,62.0,29.96,ESE,111,0.0,1.0,62,0.00,,,0.00,0,weatherlink.com 1.10,2013-08-02 12:28:00,
2013-08-02 05:43:00,75.5,61.0,29.97,ESE,111,0.0,0.0,62,0.00,,,0.00,5,weatherlink.com 1.10,2013-08-02 12:43:00,
2013-08-02 05:58:00,75.2,62.0,29.97,ESE,111,0.0,1.0,64,0.00,,,0.00,16,weatherlink.com 1.10,2013-08-02 12:58:00,
2013-08-02 06:13:00,75.9,62.0,29.98,ESE,111,0.0,1.0,63,0.00,,,0.00,44,weatherlink.com 1.10,2013-08-02 13:13:00,
2013-08-02 06:28:00,77.0,62.0,29.98,East,86,0.0,1.0,60,0.00,,,0.00,97,weatherlink.com 1.10,2013-08-02 13:28:00,
2013-08-02 06:43:00,79.2,62.0,29.98,East,86,0.0,1.0,55,0.00,,,0.00,178,weatherlink.com 1.10,2013-08-02 13:43:00,
2013-08-02 06:58:00,80.0,62.0,29.98,East,86,0.0,1.0,54,0.00,,,0.00,162,weatherlink.com 1.10,2013-08-02 13:58:00,
2013-08-02 07:13:00,83.0,63.0,29.98,ESE,121,0.0,2.0,51,0.00,,,0.00,250,weatherlink.com 1.10,2013-08-02 14:13:00,
2013-08-02 07:28:00,84.2,63.0,29.99,SSE,153,2.0,3.0,49,0.00,,,0.00,279,weatherlink.com 1.10,2013-08-02 14:28:00,
2013-08-02 07:44:00,86.1,64.0,29.99,SSE,153,0.0,2.0,47,0.00,,,0.00,378,weatherlink.com 1.10,2013-08-02 14:44:00,
2013-08-02 07:59:00,88.0,63.0,30.00,SW,225,2.0,3.0,43,0.00,,,0.00,262,weatherlink.com 1.10,2013-08-02 14:59:00,
2013-08-02 08:14:00,88.5,62.0,30.00,SW,229,0.0,4.0,41,0.00,,,0.00,287,weatherlink.com 1.10,2013-08-02 15:14:00,
2013-08-02 08:29:00,89.0,63.0,30.01,SW,215,2.0,6.0,42,0.00,,,0.00,322,weatherlink.com 1.10,2013-08-02 15:29:00,
2013-08-02 08:44:00,89.2,64.0,30.01,SW,216,4.0,8.0,43,0.00,,,0.00,255,weatherlink.com 1.10,2013-08-02 15:44:00,
2013-08-02 08:59:00,91.7,64.0,30.01,SSW,192,6.0,9.0,40,0.00,,,0.00,687,weatherlink.com 1.10,2013-08-02 15:59:00,
2013-08-02 09:14:00,93.4,64.0,30.01,SSW,208,5.0,8.0,38,0.00,,,0.00,803,weatherlink.com 1.10,2013-08-02 16:14:00,
2013-08-02 09:29:00,90.7,64.0,30.01,SW,215,2.0,7.0,41,0.00,,,0.00,415,weatherlink.com 1.10,2013-08-02 16:29:00,
2013-08-02 09:44:00,92.4,63.0,30.01,WSW,242,3.0,5.0,38,0.00,,,0.00,654,weatherlink.com 1.10,2013-08-02 16:44:00,
2013-08-02 09:59:00,92.7,64.0,30.01,SW,228,7.0,8.0,38,0.00,,,0.00,478,weatherlink.com 1.10,2013-08-02 16:59:00,
2013-08-02 10:14:00,93.9,63.0,30.01,SSW,193,2.0,10.0,36,0.00,,,0.00,657,weatherlink.com 1.10,2013-08-02 17:14:00,
2013-08-02 10:29:00,93.2,63.0,30.00,ENE,70,0.0,5.0,37,0.00,,,0.00,819,weatherlink.com 1.10,2013-08-02 17:29:00,
2013-08-02 10:44:00,92.8,63.0,30.00,NNE,24,2.0,6.0,37,0.00,,,0.00,970,weatherlink.com 1.10,2013-08-02 17:44:00,
2013-08-02 10:59:00,96.0,63.0,29.99,NNW,340,3.0,8.0,34,0.00,,,0.00,1018,weatherlink.com 1.10,2013-08-02 17:59:00,
2013-08-02 11:14:00,95.1,63.0,29.98,North,5,1.0,12.0,34,0.00,,,0.00,301,weatherlink.com 1.10,2013-08-02 18:14:00,
2013-08-02 11:29:00,93.7,63.0,29.98,SW,225,4.0,7.0,36,0.00,,,0.00,139,weatherlink.com 1.10,2013-08-02 18:29:00,
2013-08-02 11:44:00,92.3,62.0,29.98,WSW,250,5.0,11.0,37,0.00,,,0.00,93,weatherlink.com 1.10,2013-08-02 18:44:00,
2013-08-02 11:59:00,91.2,62.0,29.98,West,275,3.0,11.0,38,0.00,,,0.00,142,weatherlink.com 1.10,2013-08-02 18:59:00,
2013-08-02 12:14:00,91.5,62.0,29.98,WSW,240,4.0,8.0,38,0.00,,,0.00,202,weatherlink.com 1.10,2013-08-02 19:14:00,
2013-08-02 12:29:00,91.4,62.0,29.97,SW,225,1.0,6.0,38,0.00,,,0.00,183,weatherlink.com 1.10,2013-08-02 19:29:00,
2013-08-02 12:44:00,91.1,63.0,29.97,South,174,2.0,5.0,39,0.00,,,0.00,120,weatherlink.com 1.10,2013-08-02 19:44:00,
2013-08-02 13:14:00,90.9,63.0,29.96,SSE,162,4.0,8.0,39,0.00,,,0.00,207,weatherlink.com 1.10,2013-08-02 20:14:00,
2013-08-02 13:29:00,89.8,63.0,29.96,South,183,5.0,9.0,41,0.00,,,0.00,192,weatherlink.com 1.10,2013-08-02 20:29:00,
2013-08-02 13:44:00,89.7,64.0,29.96,South,179,1.0,9.0,42,0.00,,,0.00,153,weatherlink.com 1.10,2013-08-02 20:44:00,
2013-08-02 13:59:00,88.8,64.0,29.96,SSE,161,9.0,12.0,43,0.00,,,0.00,123,weatherlink.com 1.10,2013-08-02 20:59:00,
2013-08-02 14:14:00,88.0,63.0,29.97,South,189,3.0,13.0,44,0.00,,,0.00,107,weatherlink.com 1.10,2013-08-02 21:14:00,
2013-08-02 14:29:00,88.1,62.0,29.98,SSW,203,8.0,15.0,42,0.00,,,0.00,74,weatherlink.com 1.10,2013-08-02 21:29:00,
2013-08-02 14:44:00,86.6,65.0,29.98,South,190,9.0,18.0,48,0.00,,,0.00,91,weatherlink.com 1.10,2013-08-02 21:44:00,
2013-08-02 14:59:00,85.5,64.0,29.98,SW,222,4.0,10.0,49,0.00,,,0.00,69,weatherlink.com 1.10,2013-08-02 21:59:00,
2013-08-02 15:14:00,84.8,64.0,29.98,South,186,7.0,10.0,50,0.00,,,0.00,60,weatherlink.com 1.10,2013-08-02 22:14:00,
2013-08-02 15:29:00,83.8,65.0,29.97,South,191,3.0,11.0,54,0.00,,,0.00,60,weatherlink.com 1.10,2013-08-02 22:29:00,
2013-08-02 15:44:00,82.3,67.0,29.97,South,170,2.0,7.0,61,0.00,,,0.00,86,weatherlink.com 1.10,2013-08-02 22:44:00,
2013-08-02 15:59:00,82.2,67.0,29.97,SSW,194,0.0,2.0,60,0.00,,,0.00,127,weatherlink.com 1.10,2013-08-02 22:59:00,
2013-08-02 16:14:00,82.7,66.0,29.96,East,81,1.0,3.0,57,0.00,,,0.00,162,weatherlink.com 1.10,2013-08-02 23:14:00,
2013-08-02 16:29:00,83.3,66.0,29.96,ENE,59,2.0,5.0,56,0.00,,,0.00,149,weatherlink.com 1.10,2013-08-02 23:29:00,
2013-08-02 16:44:00,83.8,64.0,29.96,ENE,57,0.0,1.0,52,0.00,,,0.00,181,weatherlink.com 1.10,2013-08-02 23:44:00,
2013-08-02 16:59:00,84.7,64.0,29.96,ENE,64,3.0,3.0,50,0.00,,,0.00,425,weatherlink.com 1.10,2013-08-02 23:59:00,
2013-08-02 17:14:00,86.4,64.0,29.96,NW,325,1.0,4.0,47,0.00,,,0.00,568,weatherlink.com 1.10,2013-08-03 00:14:00,
2013-08-02 17:29:00,87.5,64.0,29.95,NNW,327,2.0,4.0,45,0.00,,,0.00,295,weatherlink.com 1.10,2013-08-03 00:29:00,
2013-08-02 17:44:00,87.7,64.0,29.96,SW,234,2.0,5.0,45,0.00,,,0.00,287,weatherlink.com 1.10,2013-08-03 00:44:00,
2013-08-02 17:59:00,87.8,64.0,29.96,SW,215,3.0,4.0,45,0.00,,,0.00,149,weatherlink.com 1.10,2013-08-03 00:59:00,
2013-08-02 18:14:00,87.4,64.0,29.96,SW,219,0.0,5.0,46,0.00,,,0.00,104,weatherlink.com 1.10,2013-08-03 01:14:00,
2013-08-02 18:29:00,86.9,64.0,29.97,SW,223,2.0,4.0,46,0.00,,,0.00,26,weatherlink.com 1.10,2013-08-03 01:29:00,
2013-08-02 18:44:00,86.5,64.0,29.96,SW,217,0.0,1.0,47,0.00,,,0.00,16,weatherlink.com 1.10,2013-08-03 01:44:00,
2013-08-02 18:59:00,86.1,64.0,29.96,SW,217,0.0,1.0,47,0.00,,,0.00,7,weatherlink.com 1.10,2013-08-03 01:59:00,
2013-08-02 19:14:00,85.9,63.0,29.96,SW,217,2.0,2.0,47,0.00,,,0.00,0,weatherlink.com 1.10,2013-08-03 02:14:00,
2013-08-02 19:29:00,85.7,63.0,29.97,North,355,1.0,2.0,47,0.00,,,0.00,0,weatherlink.com 1.10,2013-08-03 02:29:00,
2013-08-02 19:44:00,85.0,64.0,29.97,North,355,0.0,1.0,49,0.00,,,0.00,0,weatherlink.com 1.10,2013-08-03 02:44:00,
2013-08-02 19:59:00,84.7,64.0,29.98,North,355,2.0,2.0,50,0.00,,,0.00,0,weatherlink.com 1.10,2013-08-03 02:59:00,
2013-08-02 20:14:00,84.1,64.0,29.98,North,360,1.0,2.0,51,0.00,,,0.00,0,weatherlink.com 1.10,2013-08-03 03:14:00,
2013-08-02 20:29:00,84.1,64.0,29.98,NNE,16,0.0,1.0,51,0.00,,,0.00,0,weatherlink.com 1.10,2013-08-03 03:29:00,
2013-08-02 20:44:00,83.9,64.0,29.98,NNE,16,0.0,1.0,52,0.00,,,0.00,0,weatherlink.com 1.10,2013-08-03 03:44:00,
2013-08-02 20:59:00,82.7,64.0,29.99,NNE,16,0.0,3.0,54,0.00,,,0.00,0,weatherlink.com 1.10,2013-08-03 03:59:00,
2013-08-02 21:14:00,82.8,65.0,30.00,SSW,213,0.0,3.0,55,0.00,,,0.00,0,weatherlink.com 1.10,2013-08-03 04:14:00,
2013-08-02 21:29:00,82.6,64.0,30.00,SW,234,0.0,3.0,54,0.00,,,0.00,0,weatherlink.com 1.10,2013-08-03 04:29:00,
2013-08-02 21:44:00,82.9,64.0,30.00,WNW,282,1.0,2.0,54,0.00,,,0.00,0,weatherlink.com 1.10,2013-08-03 04:44:00,
2013-08-02 21:59:00,82.6,64.0,30.00,NW,320,0.0,3.0,54,0.00,,,0.00,0,weatherlink.com 1.10,2013-08-03 04:59:00,
2013-08-02 22:14:00,82.5,64.0,30.00,NW,320,0.0,1.0,54,0.00,,,0.00,0,weatherlink.com 1.10,2013-08-03 05:14:00,
2013-08-02 22:29:00,81.2,65.0,30.00,NW,320,0.0,1.0,59,0.00,,,0.00,0,weatherlink.com 1.10,2013-08-03 05:29:00,
2013-08-02 22:44:00,80.7,64.0,30.00,NW,320,0.0,2.0,58,0.00,,,0.00,0,weatherlink.com 1.10,2013-08-03 05:44:00,
2013-08-02 22:59:00,80.9,64.0,30.00,NW,320,0.0,2.0,57,0.00,,,0.00,0,weatherlink.com 1.10,2013-08-03 05:59:00,
2013-08-02 23:14:00,80.0,64.0,30.00,SW,221,3.0,8.0,58,0.00,,,0.00,0,weatherlink.com 1.10,2013-08-03 06:14:00,
2013-08-02 23:29:00,80.2,63.0,30.00,SW,235,3.0,7.0,55,0.00,,,0.00,0,weatherlink.com 1.10,2013-08-03 06:29:00,
2013-08-02 23:44:00,79.7,61.0,30.00,SW,215,4.0,9.0,53,0.00,,,0.00,0,weatherlink.com 1.10,2013-08-03 06:44:00,
2013-08-02 23:59:00,79.5,61.0,30.00,SSW,211,0.0,4.0,53,0.00,,,0.00,0,weatherlink.com 1.10,2013-08-03 06:59:00,